Location: ??????
(36.0418°N, 43.6351°E)
Time: 22:27:07
(UTC+00:00)

Meteor 1-20 Rocket - Pass Details

Date: 07 March 2021
Orbit: 820 x 891 km, 81.2° (Epoch: 19 April)

Event Time Altitude Azimuth Distance (km) Brightness Sun altitude
Rises 02:33:16 0° 345° (NNW) 3,443 7.2 -11.8°
Reaches altitude 10° 02:35:44 10° 341° (NNW) 2,513 6.5 -11.3°
Maximum altitude 02:41:15 52° 266° (W) 1,082 4.4 -10.2°
Drops below altitude 10° 02:46:50 10° 192° (SSW) 2,537 6.6 -9.1°
Sets 02:49:20 0° 187° (S) 3,477 7.3 -8.6°
